Simultaneous Nadir Overpasses (SNOs) Predictions

Prediction of SNOs between GOES-15 and TERRA Satellite Orbit:

Table of predicted SNOs for the next 14.0 days since TLE Epoch: 5/31/2014
Index Date Time (GOES-15) GOES-15 Lat,Lon TERRA Lat,Lon Distance(km) Time Diff (sec)
1 06/01/2014 07:22:40 0.07,-135.17 0.40,-133.50 188.95 80
2 06/01/2014 19:46:36 -0.06,-135.18 0.67,-138.67 395.96 80
3 06/03/2014 19:34:25 -0.07,-135.24 0.03,-135.71 53.73 80
4 06/05/2014 19:19:34 -0.08,-135.29 -0.61,-132.76 288.12 80
5 06/06/2014 07:43:38 0.07,-135.31 -0.51,-137.95 300.18 80
6 06/08/2014 07:28:47 0.07,-135.36 0.14,-134.99 41.05 80
7 06/10/2014 07:16:36 0.07,-135.39 0.81,-132.04 381.57 80
8 06/10/2014 19:40:31 -0.06,-135.40 0.31,-137.19 203.97 80
9 06/12/2014 19:25:39 -0.07,-135.43 -0.31,-134.23 135.42 80
10 06/13/2014 07:49:43 0.05,-135.44 -0.81,-139.42 453.42 80




NCC Satellite Simultaneous Nadir Overpasses (SNOs) Prediction Service
